| time (UTC) | temp F | wind direction | speed knots | gust knots | rain 1hr in | rain 24hr in | rain mn in | humidity % | barometer mb |
| 20260505113038 | 79 | 156 | 0.0 | 0.0 | 0.00 | 0.00 | 0.00 | 81 | 1015.5 |
| 20260505111536 | 78 | 156 | 0.0 | 0.0 | 0.00 | 0.00 | 0.00 | 79 | 1015.3 |
| 20260505101535 | 75 | 233 | 0.0 | 0.0 | 0.00 | 0.00 | 0.00 | 74 | 1014.6 |
| 20260505100033 | 75 | 153 | 0.0 | 0.0 | 0.00 | 0.00 | 0.00 | 72 | 1014.5 |
| 20260505094532 | 75 | 229 | 0.0 | 0.0 | 0.00 | 0.00 | 0.00 | 72 | 1014.5 |
| 20260505093032 | 75 | 225 | 0.0 | 0.0 | 0.00 | 0.00 | 0.00 | 71 | 1014.4 |
| 20260505091532 | 75 | 212 | 0.0 | 0.0 | 0.00 | 0.00 | 0.00 | 73 | 1014.3 |
| 20260505090030 | 75 | 171 | 0.0 | 0.0 | 0.00 | 0.00 | 0.00 | 72 | 1014.3 |
| 20260505084544 | 75 | 205 | 0.0 | 0.0 | 0.00 | 0.00 | 0.00 | 73 | 1014.1 |
| 20260505083046 | 75 | 230 | 0.0 | 0.0 | 0.00 | 0.00 | 0.00 | 73 | 1014.1 |
| 20260505081532 | 75 | 230 | 0.0 | 0.0 | 0.00 | 0.00 | 0.00 | 71 | 1014.0 |
| 20260505080037 | 75 | 215 | 0.0 | 0.0 | 0.00 | 0.00 | 0.00 | 74 | 1014.0 |
| 20260505074525 | 76 | 216 | 0.0 | 0.0 | 0.00 | 0.00 | 0.00 | 72 | 1013.8 |
| 20260505073035 | 76 | 210 | 0.0 | 0.0 | 0.00 | 0.00 | 0.00 | 73 | 1013.9 |
| 20260505071528 | 76 | 210 | 0.0 | 0.0 | 0.00 | 0.00 | 0.00 | 74 | 1013.9 |
| 20260505070025 | 76 | 210 | 0.0 | 0.0 | 0.00 | 0.00 | 0.00 | 76 | 1013.9 |
| 20260505064520 | 76 | 210 | 0.0 | 0.0 | 0.00 | 0.00 | 0.00 | 75 | 1014.0 |
| 20260505063021 | 76 | 210 | 0.0 | 0.0 | 0.00 | 0.00 | 0.00 | 74 | 1014.0 |
| 20260505061526 | 76 | 210 | 0.0 | 0.0 | 0.00 | 0.00 | 0.00 | 75 | 1014.0 |
| 20260505060020 | 76 | 174 | 0.0 | 0.0 | 0.00 | 0.00 | 0.00 | 76 | 1014.2 |
| 20260505054513 | 76 | 226 | 0.0 | 0.0 | 0.00 | 0.00 | 0.00 | 77 | 1014.5 |
| 20260505053010 | 76 | 227 | 0.0 | 0.0 | 0.00 | 0.00 | 0.00 | 78 | 1014.7 |
| 20260505051509 | 76 | 217 | 0.0 | 0.0 | 0.00 | 0.00 | 0.00 | 79 | 1014.8 |
| 20260505041604 | 77 | 172 | 0.0 | 0.0 | 0.00 | 0.00 | 0.00 | 81 | 1015.2 |
| 20260505040056 | 78 | 293 | 0.0 | 0.0 | 0.00 | 0.00 | 0.00 | 81 | 1015.3 |
| 20260505034552 | 78 | 8 | 0.0 | 0.0 | 0.00 | 0.00 | 0.00 | 81 | 1015.5 |
| 20260505033052 | 79 | 8 | 0.0 | 0.0 | 0.00 | 0.00 | 0.00 | 81 | 1015.6 |
| 20260505031553 | 78 | 217 | 0.0 | 0.0 | 0.00 | 0.00 | 0.00 | 81 | 1015.5 |
| 20260505030109 | 77 | 217 | 0.0 | 0.0 | 0.00 | 0.00 | 0.00 | 81 | 1015.6 |
| 20260505024556 | 77 | 198 | 0.0 | 0.0 | 0.00 | 0.00 | 0.00 | 81 | 1015.5 |
| 20260505023050 | 78 | 213 | 0.0 | 0.0 | 0.00 | 0.00 | 0.00 | 81 | 1015.5 |
| 20260505021550 | 78 | 188 | 0.0 | 0.0 | 0.00 | 0.00 | 0.00 | 81 | 1015.5 |
| 20260505020048 | 78 | 158 | 0.0 | 0.0 | 0.00 | 0.00 | 0.00 | 81 | 1015.5 |
| 20260505014603 | 79 | 224 | 0.0 | 0.0 | 0.00 | 0.00 | 0.00 | 81 | 1015.4 |
| 20260505013052 | 80 | 143 | 0.0 | 0.0 | 0.00 | 0.00 | 0.00 | 81 | 1015.2 |
| 20260505011550 | 80 | 117 | 0.0 | 0.0 | 0.00 | 0.00 | 0.00 | 81 | 1015.0 |
| 20260505010055 | 80 | 105 | 0.0 | 0.0 | 0.00 | 0.00 | 0.00 | 81 | 1014.9 |
| 20260505004550 | 80 | 134 | 0.0 | 0.0 | 0.00 | 0.00 | 0.00 | 81 | 1014.7 |
| 20260505003055 | 81 | 122 | 0.0 | 0.0 | 0.00 | 0.00 | 0.00 | 80 | 1014.6 |
| 20260505001546 | 81 | 108 | 0.0 | 0.0 | 0.00 | 0.00 | 0.00 | 80 | 1014.6 |
| 20260505000048 | 81 | 101 | 0.0 | 0.0 | 0.00 | 0.00 | 0.00 | 79 | 1014.6 |
| 20260504234546 | 81 | 75 | 0.0 | 0.0 | 0.00 | 0.00 | 0.00 | 78 | 1014.6 |
| 20260504233046 | 81 | 146 | 0.0 | 0.0 | 0.00 | 0.00 | 0.00 | 78 | 1014.3 |
| 20260504231543 | 82 | 92 | 0.0 | 0.0 | 0.00 | 0.00 | 0.00 | 77 | 1014.2 |
| 20260504230043 | 82 | 115 | 0.0 | 0.0 | 0.00 | 0.00 | 0.00 | 76 | 1014.0 |
| 20260504224542 | 82 | 214 | 0.0 | 0.0 | 0.00 | 0.00 | 0.00 | 75 | 1013.9 |
| 20260504223057 | 83 | 141 | 0.0 | 0.0 | 0.00 | 0.00 | 0.00 | 75 | 1013.6 |
| 20260504221542 | 83 | 122 | 0.0 | 0.0 | 0.00 | 0.00 | 0.00 | 75 | 1013.4 |
| 20260504220039 | 84 | 106 | 0.0 | 0.0 | 0.00 | 0.00 | 0.00 | 74 | 1013.2 |
| 20260504214539 | 85 | 186 | 0.9 | 6.1 | 0.00 | 0.00 | 0.00 | 71 | 1013.0 |
| 20260504213040 | 86 | 167 | 0.0 | 0.0 | 0.00 | 0.00 | 0.00 | 69 | 1012.8 |
| 20260504211603 | 87 | 127 | 0.0 | 0.0 | 0.00 | 0.00 | 0.00 | 68 | 1012.9 |
| 20260504210044 | 86 | 153 | 0.0 | 8.7 | 0.00 | 0.00 | 0.00 | 68 | 1012.9 |
| 20260504204538 | 86 | 133 | 0.0 | 7.8 | 0.00 | 0.00 | 0.00 | 69 | 1012.6 |
| 20260504203036 | 86 | 164 | 0.0 | 8.7 | 0.00 | 0.00 | 0.00 | 69 | 1012.6 |
| 20260504201536 | 87 | 99 | 0.0 | 9.6 | 0.00 | 0.00 | 0.00 | 67 | 1012.6 |
| 20260504200033 | 88 | 148 | 3.5 | 9.6 | 0.00 | 0.00 | 0.00 | 63 | 1012.7 |
| 20260504194529 | 88 | 103 | 0.0 | 8.7 | 0.00 | 0.00 | 0.00 | 67 | 1012.8 |
| 20260504193026 | 89 | 154 | 0.0 | 8.7 | 0.00 | 0.00 | 0.00 | 66 | 1013.0 |
| 20260504191525 | 88 | 156 | 0.0 | 5.2 | 0.00 | 0.00 | 0.00 | 66 | 1012.9 |
| 20260504190017 | 87 | 97 | 0.0 | 0.0 | 0.00 | 0.00 | 0.00 | 70 | 1013.1 |
| 20260504184513 | 88 | 83 | 0.0 | 7.0 | 0.00 | 0.00 | 0.00 | 67 | 1013.3 |
| 20260504183012 | 88 | 114 | 0.0 | 6.1 | 0.00 | 0.00 | 0.00 | 68 | 1013.4 |
| 20260504181510 | 88 | 86 | 0.0 | 0.0 | 0.00 | 0.00 | 0.00 | 65 | 1013.4 |
| 20260504180010 | 88 | 141 | 2.6 | 10.4 | 0.00 | 0.00 | 0.00 | 63 | 1013.5 |
| 20260504174507 | 90 | 85 | 0.0 | 2.6 | 0.00 | 0.00 | 0.00 | 60 | 1013.7 |
| 20260504173006 | 89 | 114 | 0.0 | 8.7 | 0.00 | 0.00 | 0.00 | 60 | 1013.9 |
| 20260504171505 | 89 | 183 | 0.9 | 11.3 | 0.00 | 0.00 | 0.00 | 60 | 1014.1 |